{"data":{"norad_id":43574,"intl_designator":"2018-061F","name":"IRIDIUM 154","alt_names":[],"object_type":"PAYLOAD","status":"ACTIVE","operator":null,"country":"US","launch_date":"2018-07-25","launch_site_code":"AFWTR","launch_vehicle":null,"mission":null,"orbit_class":"UNKNOWN","rcs_meters":null,"size_class":null,"mass_kg":null,"dimensions":null,"purposes":["comms"],"wikipedia_slug":null,"has_3d_model":false,"image_url":null,"decayed_at":null,"tle_current":{"epoch":"2026-05-25T03:19:02.148384Z","epoch_age_seconds":69907,"freshness":"FRESH","line1":"1 43574U 18061F   26145.13821931  .00000181  00000+0  57699-4 0  9994","line2":"2 43574  86.3969  66.4417 0002119  83.2753 276.8683 14.34219602410103","mean_motion":14.34219602,"eccentricity":0.0002119,"inclination_deg":86.3969,"raan_deg":66.4417,"arg_perigee_deg":83.2753,"mean_anomaly_deg":276.8683,"bstar":5.7699e-5,"rev_number":41010,"period_min":100.40303437437,"perigee_km":776.14468058977,"apogee_km":779.17730777971,"semimajor_km":7155.7979941847,"source":"CELESTRAK","updated_at":"2026-05-25T13:38:14.812483Z"}}}